Weather Service Report


086 
ASUS44 KOUN 292210
RWROK 

WEATHER ROUNDUP FOR OKLAHOMA
NATIONAL WEATHER SERVICE NORMAN OK
400 PM CST THU JAN 29 2015

NOTE: "FAIR" INDICATES FEW OR NO CLOUDS BELOW 12,000 FEET WITH NO
      SIGNIFICANT WEATHER AND/OR OBSTRUCTIONS TO VISIBILITY.

OKZ001>007-009>012-014-015-017-292300-
NORTHWEST OKLAHOMA AND THE PANHANDLE
  
CITY           SKY/WX    TMP DP  RH WIND       PRES   REMARKS
GAGE           MOSUNNY   51  23  33 N17       30.45S                  
ENID/WOODRING  MOSUNNY   54  28  37 N23G29    30.44R                  
$$

OKZ016-021>023-033>039-044-045-292300-
SOUTHWEST OKLAHOMA
  
CITY           SKY/WX    TMP DP  RH WIND       PRES   REMARKS
LAWTON/REGL    PTSUNNY   54  28  36 N17G30    30.42R                  
LAWTON/FT SILL PTSUNNY   53  29  40 N14       30.41R                  
FREDERICK      CLOUDY    54  29  38 N23       30.40R                  
CLINTON        CLOUDY    49  27  42 N18       30.46R                  
HOBART         CLOUDY    50  27  40 N23       30.45R                  
ALTUS AFB      CLOUDY    53  29  39 N22       30.44R                  
$$

OKZ018>020-024>031-292300-
CENTRAL OKLAHOMA
  
CITY           SKY/WX    TMP DP  RH WIND       PRES   REMARKS
OKLAHOMA CITY  CLOUDY    50  27  40 N21       30.42R                  
OKC/WILEY POST CLOUDY    50  29  44 N17G28    30.44R                  
OKC/TINKER AFB CLOUDY    49  29  45 N17G25    30.41R                  
STILLWATER     MOSUNNY   52  27  38 N16G25    30.44R                  
GUTHRIE        CLOUDY    49  28  44 N8G20     30.44R                  
$$

OKZ008-013-054>072-292300-
NORTHEAST OKLAHOMA
  
CITY           SKY/WX    TMP DP  RH WIND       PRES   REMARKS
TULSA          MOSUNNY   52  30  43 N20G26    30.40R                  
TULSA/JONES    SUNNY     52  30  43 N14G23    30.42R                  
PONCA CITY     SUNNY     51  27  39 N18       30.44R                  
BARTLESVILLE   SUNNY     50  29  44 N12G18    30.44R                  
MUSKOGEE       MOSUNNY   51  29  42 N17       30.42R                  
$$

OKZ032-040>043-046>053-073>077-292300-
SOUTH CENTRAL/SOUTHEAST OKLAHOMA
  
CITY           SKY/WX    TMP DP  RH WIND       PRES   REMARKS
ARDMORE/DWNTWN PTSUNNY   55  30  38 N12       30.37S                  
MCALESTER      PTSUNNY   52  31  44 N18       30.39R                  
$$


Return to Home page


Western Regional Climate Center, wrcc@dri.edu